�������l�o���
Date,Time,MP-1(��Sv/h),MP-2(��Sv/h),MP-3(��Sv/h),MP-4(��Sv/h),MP-5(��Sv/h),MP-6(��Sv/h),MP-7(��Sv/h),MP-8(��Sv/h),����,����(m/s),���J
2021/07/24,00:00,0.634,0.948,0.606,1.149,0.831,0.375,0.651,0.606,��,1.9,��
2021/07/24,00:10,0.636,0.947,0.603,1.152,0.831,0.376,0.653,0.605,��,0.9,��
2021/07/24,00:20,0.634,0.950,0.603,1.151,0.831,0.377,0.651,0.607,���k��,0.6,��
2021/07/24,00:30,0.636,0.950,0.603,1.152,0.832,0.376,0.652,0.605,�k��,0.6,��
2021/07/24,00:40,0.634,0.951,0.602,1.151,0.834,0.376,0.652,0.605,�k�k��,0.8,��
2021/07/24,00:50,0.634,0.947,0.603,1.150,0.832,0.376,0.653,0.606,�k�k��,0.8,��
2021/07/24,01:00,0.634,0.949,0.604,1.153,0.833,0.376,0.653,0.606,�k�k��,0.9,��
2021/07/24,01:10,0.635,0.950,0.603,1.151,0.833,0.377,0.651,0.605,�k��,0.6,��
2021/07/24,01:20,0.635,0.947,0.603,1.151,0.833,0.376,0.651,0.605,-,CALM,��
2021/07/24,01:30,0.634,0.949,0.602,1.153,0.831,0.377,0.650,0.606,-,CALM,��
2021/07/24,01:40,0.634,0.950,0.602,1.150,0.832,0.376,0.652,0.606,-,CALM,��
2021/07/24,01:50,0.636,0.947,0.602,1.150,0.831,0.375,0.650,0.607,-,CALM,��
2021/07/24,02:00,0.633,0.950,0.603,1.150,0.834,0.377,0.651,0.607,-,CALM,��
2021/07/24,02:10,0.633,0.950,0.602,1.151,0.833,0.377,0.651,0.607,-,CALM,��
2021/07/24,02:20,0.635,0.950,0.602,1.152,0.831,0.377,0.651,0.605,�쓌,0.6,��
2021/07/24,02:30,0.633,0.948,0.603,1.152,0.834,0.376,0.651,0.606,��쓌,0.6,��
2021/07/24,02:40,0.636,0.950,0.604,1.151,0.834,0.377,0.651,0.605,��,0.6,��
2021/07/24,02:50,0.634,0.949,0.603,1.151,0.830,0.376,0.651,0.605,��쓌,1.1,��
2021/07/24,03:00,0.633,0.949,0.604,1.151,0.830,0.375,0.651,0.606,��,0.9,��
2021/07/24,03:10,0.636,0.948,0.604,1.151,0.832,0.376,0.649,0.607,��쐼,0.9,��
2021/07/24,03:20,0.635,0.948,0.601,1.152,0.832,0.377,0.652,0.606,��,1.7,��
2021/07/24,03:30,0.634,0.949,0.603,1.151,0.832,0.378,0.652,0.607,��,1.1,��
2021/07/24,03:40,0.635,0.949,0.602,1.152,0.830,0.377,0.651,0.605,��,1.2,��
2021/07/24,03:50,0.633,0.949,0.604,1.151,0.831,0.375,0.652,0.606,��쐼,1.7,��
2021/07/24,04:00,0.635,0.948,0.603,1.151,0.834,0.376,0.651,0.606,�쐼,1.5,��
2021/07/24,04:10,0.634,0.950,0.601,1.151,0.833,0.376,0.651,0.606,�쐼,1.2,��
2021/07/24,04:20,0.635,0.950,0.602,1.150,0.832,0.377,0.651,0.605,��쐼,0.6,��
2021/07/24,04:30,0.633,0.948,0.603,1.149,0.832,0.375,0.651,0.605,-,CALM,��
2021/07/24,04:40,0.635,0.950,0.603,1.151,0.831,0.375,0.650,0.605,-,CALM,��
2021/07/24,04:50,0.631,0.946,0.601,1.151,0.832,0.377,0.651,0.605,-,CALM,��
2021/07/24,05:00,0.634,0.950,0.603,1.148,0.829,0.376,0.651,0.608,-,CALM,��
2021/07/24,05:10,0.634,0.949,0.603,1.150,0.832,0.377,0.652,0.606,�k�k��,0.6,��
2021/07/24,05:20,0.634,0.949,0.603,1.152,0.830,0.376,0.651,0.606,�k��,0.6,��
2021/07/24,05:30,0.633,0.948,0.602,1.153,0.832,0.377,0.651,0.607,�k�k��,0.6,��
2021/07/24,05:40,0.632,0.948,0.602,1.153,0.830,0.378,0.652,0.605,-,CALM,��
2021/07/24,05:50,0.633,0.948,0.603,1.154,0.833,0.378,0.650,0.607,�k�k��,0.9,��
2021/07/24,06:00,0.633,0.950,0.602,1.152,0.832,0.376,0.652,0.607,�k,0.6,��
2021/07/24,06:10,0.636,0.950,0.603,1.152,0.831,0.376,0.651,0.608,-,CALM,��
2021/07/24,06:20,0.635,0.950,0.600,1.152,0.829,0.376,0.650,0.608,-,CALM,��
2021/07/24,06:30,0.634,0.949,0.600,1.149,0.828,0.376,0.654,0.607,-,CALM,��
2021/07/24,06:40,0.634,0.948,0.601,1.148,0.830,0.376,0.652,0.605,��,1.2,��
2021/07/24,06:50,0.633,0.949,0.602,1.153,0.830,0.376,0.651,0.605,-,CALM,��
2021/07/24,07:00,0.636,0.950,0.602,1.152,0.831,0.375,0.650,0.606,�k��,0.9,��
2021/07/24,07:10,0.635,0.949,0.601,1.151,0.831,0.377,0.652,0.607,-,CALM,��
2021/07/24,07:20,0.636,0.950,0.603,1.152,0.831,0.375,0.653,0.606,��,0.6,��
2021/07/24,07:30,0.634,0.948,0.601,1.152,0.832,0.375,0.653,0.606,-,CALM,��
2021/07/24,07:40,0.633,0.948,0.602,1.152,0.830,0.377,0.653,0.607,�k��,0.6,��
2021/07/24,07:50,0.636,0.949,0.602,1.153,0.831,0.375,0.652,0.608,-,CALM,��
2021/07/24,08:00,0.634,0.951,0.600,1.152,0.830,0.376,0.652,0.608,���k��,1.2,��
2021/07/24,08:10,0.634,0.951,0.602,1.153,0.831,0.376,0.650,0.606,���k��,1.7,��
2021/07/24,08:20,0.633,0.951,0.602,1.152,0.833,0.376,0.651,0.605,���k��,1.7,��
2021/07/24,08:30,0.634,0.949,0.603,1.153,0.832,0.376,0.653,0.604,��,2.0,��
2021/07/24,08:40,0.634,0.950,0.604,1.150,0.831,0.376,0.652,0.605,��,1.5,��
2021/07/24,08:50,0.636,0.950,0.600,1.151,0.831,0.376,0.651,0.604,��,2.0,��
2021/07/24,09:00,0.636,0.948,0.601,1.152,0.832,0.376,0.652,0.605,��,2.0,��
2021/07/24,09:10,0.636,0.949,0.600,1.152,0.832,0.376,0.653,0.606,���쓌,2.5,��
2021/07/24,09:20,0.635,0.950,0.601,1.153,0.832,0.374,0.653,0.605,���쓌,2.5,��
2021/07/24,09:30,0.635,0.950,0.603,1.153,0.832,0.378,0.652,0.604,���쓌,2.6,��
2021/07/24,09:40,0.633,0.948,0.603,1.152,0.831,0.375,0.655,0.605,�쓌,2.6,��
2021/07/24,09:50,0.636,0.950,0.600,1.151,0.832,0.375,0.652,0.606,�쓌,3.4,��
2021/07/24,10:00,0.634,0.949,0.602,1.154,0.832,0.376,0.653,0.607,�쓌,2.5,��
2021/07/24,10:10,0.636,0.950,0.601,1.152,0.831,0.377,0.653,0.606,�쓌,3.4,��
2021/07/24,10:20,0.635,0.949,0.601,1.152,0.832,0.376,0.652,0.606,�쓌,3.5,��
2021/07/24,10:30,0.635,0.950,0.603,1.153,0.830,0.377,0.652,0.605,�쓌,3.3,��
2021/07/24,10:40,0.635,0.950,0.602,1.155,0.834,0.375,0.652,0.607,�쓌,4.4,��
2021/07/24,10:50,0.634,0.948,0.600,1.152,0.832,0.376,0.650,0.605,�쓌,3.0,��
2021/07/24,11:00,0.636,0.949,0.600,1.153,0.833,0.376,0.651,0.604,���쓌,4.6,��
2021/07/24,11:10,0.634,0.950,0.601,1.153,0.830,0.376,0.652,0.605,�쓌,4.4,��
2021/07/24,11:20,0.636,0.949,0.601,1.151,0.833,0.375,0.651,0.605,�쓌,3.6,��
2021/07/24,11:30,0.636,0.949,0.602,1.148,0.834,0.376,0.652,0.604,�쓌,4.2,��
2021/07/24,11:40,0.634,0.947,0.602,1.150,0.834,0.376,0.653,0.605,�쓌,4.3,��
2021/07/24,11:50,0.637,0.948,0.603,1.151,0.834,0.376,0.651,0.607,�쓌,4.8,��
2021/07/24,12:00,0.636,0.947,0.601,1.151,0.833,0.376,0.652,0.606,�쓌,4.3,��
2021/07/24,12:10,0.636,0.950,0.603,1.152,0.834,0.376,0.652,0.606,�쓌,4.4,��
2021/07/24,12:20,0.636,0.950,0.602,1.154,0.834,0.376,0.652,0.607,��쓌,3.9,��
2021/07/24,12:30,0.637,0.950,0.602,1.152,0.834,0.375,0.652,0.606,��쓌,4.2,��
2021/07/24,12:40,0.636,0.950,0.602,1.152,0.836,0.375,0.652,0.605,�쓌,5.5,��
2021/07/24,12:50,0.637,0.948,0.604,1.151,0.836,0.376,0.652,0.606,��쓌,5.4,��
2021/07/24,13:00,0.635,0.952,0.604,1.154,0.834,0.375,0.652,0.605,��쓌,5.9,��
2021/07/24,13:10,0.636,0.949,0.604,1.150,0.833,0.376,0.651,0.606,��쓌,5.4,��
2021/07/24,13:20,0.636,0.950,0.602,1.152,0.834,0.375,0.652,0.605,��쓌,5.9,��
2021/07/24,13:30,0.635,0.951,0.602,1.150,0.834,0.375,0.651,0.607,�쓌,4.8,��
2021/07/24,13:40,0.635,0.949,0.603,1.150,0.832,0.377,0.653,0.607,��쓌,6.4,��
2021/07/24,13:50,0.636,0.951,0.602,1.151,0.834,0.376,0.652,0.608,��쓌,6.5,��
2021/07/24,14:00,0.637,0.951,0.604,1.153,0.836,0.376,0.653,0.607,��쓌,5.0,��
2021/07/24,14:10,0.635,0.952,0.602,1.153,0.835,0.375,0.652,0.608,��,2.9,��
2021/07/24,14:20,0.635,0.951,0.605,1.151,0.835,0.376,0.651,0.607,��,5.5,��
2021/07/24,14:30,0.637,0.951,0.605,1.154,0.834,0.377,0.652,0.608,��쓌,3.3,��
2021/07/24,14:40,0.636,0.950,0.602,1.152,0.836,0.376,0.655,0.606,���쓌,2.6,��
2021/07/24,14:50,0.636,0.952,0.604,1.153,0.832,0.376,0.655,0.608,�쓌,2.8,��
2021/07/24,15:00,0.634,0.949,0.606,1.154,0.835,0.379,0.654,0.608,��쓌,4.6,��
2021/07/24,15:10,0.637,0.952,0.605,1.152,0.835,0.377,0.654,0.606,�쓌,3.5,��
2021/07/24,15:20,0.636,0.952,0.605,1.156,0.837,0.376,0.655,0.607,�쓌,4.8,��
2021/07/24,15:30,0.637,0.951,0.606,1.154,0.834,0.377,0.654,0.607,�쓌,4.3,��
2021/07/24,15:40,0.636,0.949,0.602,1.154,0.836,0.375,0.657,0.607,��쓌,5.8,��
2021/07/24,15:50,0.638,0.951,0.605,1.157,0.837,0.376,0.655,0.608,�쓌,2.6,��
2021/07/24,16:00,0.636,0.949,0.605,1.155,0.836,0.377,0.653,0.606,��쓌,3.0,��
2021/07/24,16:10,0.636,0.950,0.605,1.155,0.834,0.377,0.653,0.605,��쓌,3.2,��
2021/07/24,16:20,0.636,0.952,0.605,1.157,0.837,0.375,0.655,0.604,���쓌,1.7,��
2021/07/24,16:30,0.637,0.952,0.604,1.155,0.834,0.378,0.653,0.604,��쓌,2.0,��
2021/07/24,16:40,0.637,0.951,0.604,1.157,0.834,0.376,0.653,0.606,��쓌,4.2,��
2021/07/24,16:50,0.639,0.951,0.605,1.157,0.834,0.376,0.652,0.607,��쓌,5.9,��
2021/07/24,17:00,0.635,0.952,0.602,1.158,0.836,0.376,0.653,0.606,��쓌,5.7,��
2021/07/24,17:10,0.636,0.952,0.603,1.156,0.837,0.376,0.653,0.606,��쓌,5.2,��
2021/07/24,17:20,0.635,0.951,0.604,1.156,0.833,0.375,0.651,0.606,��쓌,5.8,��
2021/07/24,17:30,0.636,0.949,0.602,1.155,0.835,0.376,0.652,0.607,��쓌,6.1,��
2021/07/24,17:40,0.636,0.951,0.603,1.156,0.833,0.376,0.653,0.606,��쓌,6.0,��
2021/07/24,17:50,0.637,0.949,0.603,1.156,0.834,0.376,0.653,0.606,��쓌,5.6,��
2021/07/24,18:00,0.635,0.952,0.602,1.157,0.834,0.375,0.651,0.607,��,5.5,��
2021/07/24,18:10,0.636,0.951,0.604,1.155,0.834,0.376,0.652,0.606,��쓌,5.4,��
2021/07/24,18:20,0.636,0.949,0.603,1.155,0.834,0.377,0.653,0.606,��,5.4,��
2021/07/24,18:30,0.636,0.952,0.602,1.153,0.834,0.375,0.652,0.606,��,5.0,��
2021/07/24,18:40,0.636,0.950,0.602,1.155,0.837,0.375,0.653,0.606,��,4.7,��
2021/07/24,18:50,0.635,0.950,0.602,1.155,0.835,0.375,0.652,0.606,��,5.3,��
2021/07/24,19:00,0.635,0.951,0.602,1.155,0.837,0.375,0.651,0.607,��,5.2,��
2021/07/24,19:10,0.636,0.951,0.601,1.155,0.839,0.375,0.653,0.607,��,5.4,��
2021/07/24,19:20,0.637,0.950,0.604,1.154,0.836,0.376,0.651,0.607,��,5.6,��
2021/07/24,19:30,0.633,0.952,0.602,1.156,0.835,0.376,0.651,0.606,��,5.3,��
2021/07/24,19:40,0.635,0.952,0.603,1.154,0.835,0.376,0.652,0.605,��,5.4,��
2021/07/24,19:50,0.638,0.952,0.602,1.152,0.835,0.375,0.652,0.606,��쓌,5.6,��
2021/07/24,20:00,0.637,0.951,0.603,1.154,0.838,0.377,0.652,0.606,��쓌,5.1,��
2021/07/24,20:10,0.635,0.953,0.605,1.156,0.836,0.376,0.653,0.607,��,5.3,��
2021/07/24,20:20,0.638,0.953,0.604,1.158,0.837,0.377,0.653,0.606,��,5.3,��
2021/07/24,20:30,0.638,0.952,0.603,1.155,0.834,0.377,0.651,0.607,��,5.7,��
2021/07/24,20:40,0.636,0.951,0.603,1.154,0.835,0.377,0.654,0.606,��,5.2,��
2021/07/24,20:50,0.638,0.951,0.604,1.155,0.835,0.378,0.653,0.605,��,5.4,��
2021/07/24,21:00,0.636,0.952,0.604,1.155,0.835,0.376,0.654,0.607,��,4.6,��
2021/07/24,21:10,0.638,0.952,0.602,1.154,0.834,0.377,0.652,0.605,��,4.5,��
2021/07/24,21:20,0.638,0.952,0.603,1.155,0.835,0.377,0.654,0.608,��,4.4,��
2021/07/24,21:30,0.636,0.953,0.604,1.155,0.835,0.377,0.651,0.607,��,3.5,��
2021/07/24,21:40,0.636,0.953,0.602,1.157,0.835,0.375,0.652,0.606,��,2.6,��
2021/07/24,21:50,0.636,0.952,0.602,1.157,0.835,0.378,0.652,0.608,��쐼,3.9,��
2021/07/24,22:00,0.638,0.950,0.603,1.158,0.836,0.376,0.651,0.606,��쐼,3.9,��
2021/07/24,22:10,0.637,0.953,0.605,1.156,0.836,0.377,0.652,0.606,��,4.0,��
2021/07/24,22:20,0.638,0.950,0.604,1.157,0.836,0.376,0.654,0.607,��,3.8,��
2021/07/24,22:30,0.637,0.952,0.603,1.154,0.836,0.377,0.654,0.608,��,3.8,��
2021/07/24,22:40,0.638,0.954,0.603,1.158,0.837,0.377,0.652,0.606,��,4.2,��
2021/07/24,22:50,0.637,0.952,0.604,1.154,0.836,0.376,0.652,0.607,��,4.9,��
2021/07/24,23:00,0.637,0.951,0.604,1.157,0.837,0.377,0.653,0.607,��,4.1,��
2021/07/24,23:10,0.637,0.953,0.604,1.155,0.835,0.376,0.652,0.606,��,4.3,��
2021/07/24,23:20,0.637,0.955,0.603,1.157,0.835,0.378,0.653,0.608,��,4.3,��
2021/07/24,23:30,0.638,0.953,0.607,1.156,0.836,0.376,0.653,0.606,��,4.1,��
2021/07/24,23:40,0.639,0.951,0.605,1.159,0.834,0.377,0.654,0.607,��,3.6,��
2021/07/24,23:50,0.637,0.952,0.605,1.158,0.838,0.376,0.653,0.607,��쐼,3.2,��
